Location: Slave Lake
(55.2830°N, 114.7830°W)
Time: 07:14:00
(UTC-06:00)

Amateur Radio Satellites - All Passes

Search period start: 27 March 2015 06:44
Search period end: 28 March 2015 06:44
Location: Slave Lake, 55.2830°N, 114.7830°W

Satellite Date Start Highest point End Downlink Frequencies (MHz)
Time Altitude Azimuth
PRISM 27 Mar 06:51:05 06:55:17 65° 70° (ENE) 06:59:30 437.425
AUBIESAT-1 27 Mar 06:56:07 06:59:03 18° 267° (W) 07:02:03 437.475
O/OREOS (USA 219) 27 Mar 07:07:10 07:11:41 51° 309° (NW) 07:16:13 437.305
HORYU 2 27 Mar 07:10:33 07:13:55 21° 304° (NW) 07:17:13 437.375
AIST 1 27 Mar 07:19:14 07:22:36 20° 300° (WNW) 07:25:53
M-CUBED/EXP-1 PRIME 27 Mar 07:20:45 07:21:47 11° 274° (W) 07:22:36 437.505
Cubesat XI-IV 27 Mar 07:40:23 07:45:26 41° 97° (E) 07:50:29 437.490
CUTE-I 27 Mar 07:40:58 07:46:01 41° 97° (E) 07:51:03 437.470
STRAND 1 27 Mar 07:55:13 08:00:19 58° 259° (W) 08:05:25 437.568
CUSAT 1 27 Mar 07:55:19 07:58:17 25° 67° (ENE) 08:01:59 437.405
GONETS M04 27 Mar 07:57:53 08:06:45 85° 260° (W) 08:15:37
CUBESAT XI-V 27 Mar 08:10:21 08:14:28 28° 268° (W) 08:18:32 437.345
JAS-2 27 Mar 08:17:34 08:24:15 31° 310° (NW) 08:30:39 435.910
PRISM 27 Mar 08:28:04 08:31:13 20° 270° (W) 08:34:17 437.425
DANDE 27 Mar 08:29:09 08:32:12 36° 71° (ENE) 08:36:07 436.750
AO-7 27 Mar 08:33:29 08:40:40 34° 316° (NW) 08:47:44 29.400- 29.500
O/OREOS (USA 219) 27 Mar 08:49:13 08:52:12 16° 332° (NNW) 08:55:08 437.305
RS-15 27 Mar 08:53:19 08:54:33 10° 271° (W) 08:54:45 29.354- 29.394
TIGRISAT 27 Mar 09:08:45 09:09:33 11° 47° (NE) 09:10:32 435.000
GOMX 1 27 Mar 09:09:43 09:11:42 13° 85° (E) 09:13:51 467.674
HO-68 27 Mar 09:15:35 09:21:00 23° 85° (E) 09:26:36 435.675
Cubesat XI-IV 27 Mar 09:20:34 09:25:37 43° 298° (WNW) 09:30:37 437.490
CUTE-I 27 Mar 09:21:08 09:26:11 43° 298° (WNW) 09:31:10 437.470
SEEDS 27 Mar 09:25:41 09:27:58 14° 85° (E) 09:30:25 437.485
AAUSAT CUBESAT 2 27 Mar 09:27:43 09:28:51 11° 82° (E) 09:30:11 437.432
ANTELSAT 27 Mar 09:35:28 09:38:10 17° 54° (NE) 09:41:00 437.575/2403.000
CUSAT 1 27 Mar 09:37:45 09:41:07 38° 261° (W) 09:45:25 437.405
STRAND 1 27 Mar 09:39:07 09:40:45 11° 280° (W) 09:42:08 437.568
BRITE-PL 27 Mar 09:47:18 09:51:12 38° 97° (E) 09:55:10 437.365/2234.400
COMPASS 1 27 Mar 09:51:20 09:54:29 20° 89° (E) 09:57:42 437.405
GONETS M04 27 Mar 09:55:36 10:02:32 26° 284° (WNW) 10:09:13
QB50P1 27 Mar 10:03:18 10:05:57 17° 55° (NE) 10:08:42 145.935-145.965
JAS-2 27 Mar 10:03:33 10:07:02 13° 334° (NNW) 10:10:19 435.910
DUCHIFAT 1 27 Mar 10:06:31 10:09:15 17° 55° (NE) 10:12:03 145.980
DANDE 27 Mar 10:12:39 10:15:27 23° 263° (W) 10:18:46 436.750
CANX-2 27 Mar 10:13:00 10:17:09 44° 97° (E) 10:21:19 2200.000
QB50P2 27 Mar 10:16:38 10:19:47 21° 58° (ENE) 10:23:00 145.880/145.840
AO-7 27 Mar 10:26:19 10:31:09 17° 343° (NNW) 10:35:54 29.400- 29.500
CUTE 1.7 + AOD 2 27 Mar 10:27:17 10:31:32 54° 100° (E) 10:35:47 437.475
UNISAT 6 27 Mar 10:30:00 10:34:01 41° 65° (ENE) 10:38:08 437.425
UKube-1 27 Mar 10:39:52 10:41:18 12° 83° (E) 10:42:54 .
TIGRISAT 27 Mar 10:41:18 10:45:24 49° 68° (ENE) 10:49:37 435.000
CINEMA 3 27 Mar 10:43:56 10:47:56 37° 96° (E) 10:52:05 145.822/145.860
POPSAT HIP 1 27 Mar 10:45:11 10:48:58 33° 64° (ENE) 10:52:48 437.405
DX 1 27 Mar 10:46:12 10:48:25 14° 85° (E) 10:50:47 434.975-435.025
GOMX 1 27 Mar 10:46:22 10:50:35 88° 97° (E) 10:54:54 467.674
DOVE 4 27 Mar 10:46:35 10:50:48 65° 103° (ESE) 10:55:10 437.250
DELFI C3 27 Mar 10:55:49 10:59:24 28° 93° (E) 11:03:00 145.870
NANOSAT C BR1 27 Mar 10:56:37 11:00:34 41° 66° (ENE) 11:04:34 145.865
BUGSAT 1 27 Mar 10:57:28 11:01:10 32° 64° (ENE) 11:04:53 437.445
POLYITAN 1 27 Mar 10:58:35 11:02:35 43° 66° (ENE) 11:06:37 437.675
SEEDS 27 Mar 11:00:10 11:04:30 90° 287° (WNW) 11:08:47 437.485
AAUSAT CUBESAT 2 27 Mar 11:01:07 11:05:23 71° 103° (ESE) 11:09:37 437.432
HUMSAT D 27 Mar 11:01:27 11:03:37 14° 85° (E) 11:05:57 437.325/437.525
Cubesat XI-IV 27 Mar 11:02:25 11:04:33 12° 319° (NW) 11:06:31 437.490
HO-68 27 Mar 11:02:38 11:09:55 84° 108° (ESE) 11:17:09 435.675
CUTE-I 27 Mar 11:03:00 11:05:06 12° 319° (NW) 11:07:02 437.470
Oscar 11 27 Mar 11:08:26 11:12:40 45° 98° (E) 11:16:52 145.826/435.025
ANTELSAT 27 Mar 11:10:07 11:14:24 88° 74° (ENE) 11:18:48 437.575/2403.000
CUBEBUG 2 27 Mar 11:11:57 11:16:03 40° 97° (E) 11:20:16 437.445
UWE-3 27 Mar 11:12:03 11:16:02 34° 96° (E) 11:20:07 435.000/436.395/437.385
FUNcube-1 27 Mar 11:14:15 11:18:04 30° 94° (E) 11:21:59 145.935
VELOX 1 27 Mar 11:16:33 11:18:38 13° 84° (E) 11:20:53 145.980
AISAT 27 Mar 11:19:55 11:22:19 15° 85° (E) 11:24:52 437.250
BRITE-PL 27 Mar 11:26:04 11:29:45 31° 297° (WNW) 11:33:27 437.365/2234.400
ZACube-1 27 Mar 11:26:04 11:30:07 38° 97° (E) 11:34:16 437.345
COMPASS 1 27 Mar 11:26:22 11:30:36 63° 290° (WNW) 11:34:49 437.405
QB50P1 27 Mar 11:37:05 11:41:19 89° 245° (WSW) 11:45:35 145.935-145.965
DUCHIFAT 1 27 Mar 11:40:22 11:44:35 86° 254° (WSW) 11:48:49 145.980
ESTCUBE 1 27 Mar 11:41:30 11:43:41 14° 83° (E) 11:46:02 437.505/2401.250
CANX-2 27 Mar 11:49:12 11:52:59 30° 297° (WNW) 11:56:44 2200.000
QB50P2 27 Mar 11:51:07 11:55:20 67° 257° (WSW) 11:59:34 145.880/145.840
CUTE 1.7 + AOD 2 27 Mar 12:03:40 12:07:14 25° 300° (WNW) 12:10:45 437.475
BEESAT 2 27 Mar 12:04:02 12:07:25 25° 120° (ESE) 12:10:52 435.950
UNISAT 6 27 Mar 12:07:07 12:10:57 31° 266° (W) 12:14:49 437.425
O/OREOS (USA 219) 27 Mar 12:12:34 12:15:04 14° 23° (NNE) 12:17:37 437.305
50 SAT 27 Mar 12:13:51 12:17:40 40° 98° (E) 12:21:31 437.505
UKube-1 27 Mar 12:13:58 12:18:20 73° 104° (ESE) 12:22:40 .
AO-7 27 Mar 12:16:27 12:20:48 16° 11° (N) 12:25:13 29.400- 29.500
TIGRISAT 27 Mar 12:18:52 12:22:28 25° 268° (W) 12:26:03 435.000
POPSAT HIP 1 27 Mar 12:20:54 12:24:51 37° 263° (W) 12:28:48 437.405
DX 1 27 Mar 12:21:02 12:25:25 87° 106° (ESE) 12:29:46 434.975-435.025
CINEMA 3 27 Mar 12:21:16 12:25:10 34° 295° (WNW) 12:29:10 145.822/145.860
DOVE 4 27 Mar 12:25:05 12:28:17 21° 301° (WNW) 12:31:30 437.250
GOMX 1 27 Mar 12:25:37 12:28:16 16° 305° (NW) 12:30:51 467.674
DELFI C3 27 Mar 12:30:49 12:34:44 42° 293° (WNW) 12:38:37 145.870
BUGSAT 1 27 Mar 12:32:45 12:36:38 37° 263° (W) 12:40:30 437.445
NANOSAT C BR1 27 Mar 12:32:49 12:36:34 30° 266° (W) 12:40:18 145.865
POLYITAN 1 27 Mar 12:34:59 12:38:41 28° 267° (W) 12:42:21 437.675
HUMSAT D 27 Mar 12:35:51 12:40:06 89° 104° (ESE) 12:44:22 437.325/437.525
SEEDS 27 Mar 12:36:58 12:39:46 17° 305° (NW) 12:42:28 437.485
AAUSAT CUBESAT 2 27 Mar 12:37:29 12:40:37 20° 302° (WNW) 12:43:41 437.432
BEESAT 3 27 Mar 12:43:05 12:47:07 54° 129° (SE) 12:51:11 437.485
Oscar 11 27 Mar 12:44:53 12:48:44 30° 298° (WNW) 12:52:31 145.826/435.025
Gurwin Techsat 1B 27 Mar 12:45:42 12:48:03 13° 43° (NE) 12:50:33 435.225
Oscar 19 27 Mar 12:46:27 12:50:46 29° 58° (ENE) 12:55:11 437.125/150
UWE-3 27 Mar 12:48:38 12:52:38 37° 295° (WNW) 12:56:42 435.000/436.395/437.385
CUBEBUG 2 27 Mar 12:48:50 12:52:44 33° 296° (WNW) 12:56:40 437.445
ANTELSAT 27 Mar 12:49:28 12:51:57 15° 275° (W) 12:54:19 437.575/2403.000
FUNcube-1 27 Mar 12:50:28 12:54:33 42° 293° (WNW) 12:58:42 145.935
HO-68 27 Mar 12:50:52 12:57:06 32° 311° (NW) 13:03:14 435.675
VELOX 1 27 Mar 12:51:34 12:56:01 81° 106° (ESE) 13:00:27 145.980
AISAT 27 Mar 12:55:12 12:59:40 89° 106° (ESE) 13:04:05 437.250
CUBEBUG 1 27 Mar 12:58:33 13:02:49 51° 100° (E) 13:07:04 437.445
AIST 2 27 Mar 13:01:58 13:05:47 33° 124° (ESE) 13:09:41 435.215
YUBILEINY 27 Mar 13:02:19 13:07:28 18° 70° (ENE) 13:13:01 435.215
ZACube-1 27 Mar 13:02:34 13:06:29 34° 296° (WNW) 13:10:26 437.345
COMPASS 1 27 Mar 13:03:40 13:05:34 13° 309° (NW) 13:07:20 437.405
TISAT 1 27 Mar 13:15:20 13:18:34 22° 91° (E) 13:21:52 437.305
QB50P1 27 Mar 13:15:37 13:17:55 14° 275° (W) 13:20:04 145.935-145.965
ESTCUBE 1 27 Mar 13:16:50 13:21:25 80° 105° (ESE) 13:25:57 437.505/2401.250
SPROUT 27 Mar 13:16:58 13:20:34 26° 92° (E) 13:24:12 437.525
DUCHIFAT 1 27 Mar 13:19:03 13:21:10 13° 276° (W) 13:23:07 145.980
JAS-2 27 Mar 13:27:19 13:30:33 14° 26° (NNE) 13:34:02 435.910
QB50P2 27 Mar 13:31:29 13:32:11 10° 278° (W) 13:32:40 145.880/145.840
BEESAT 2 27 Mar 13:41:06 13:45:15 69° 321° (NW) 13:49:27 435.950
ITAMSAT 1 27 Mar 13:46:31 13:51:09 34° 59° (ENE) 13:55:50 435.822/435.867
ITUPSAT 1 27 Mar 13:47:51 13:48:19 10° 80° (E) 13:49:03 437.325
50 SAT 27 Mar 13:49:00 13:52:31 29° 297° (WNW) 13:55:59 437.505
UKube-1 27 Mar 13:50:50 13:54:06 21° 304° (WNW) 13:57:16 .
O/OREOS (USA 219) 27 Mar 13:51:26 13:55:47 40° 47° (NE) 14:00:06 437.305
DX 1 27 Mar 13:58:11 14:01:10 18° 306° (NW) 14:04:04 434.975-435.025
AO-7 27 Mar 14:04:25 14:11:00 28° 38° (NE) 14:17:43 29.400- 29.500
HUMSAT D 27 Mar 14:12:37 14:15:21 17° 305° (NW) 14:18:01 437.325/437.525
BEESAT 3 27 Mar 14:21:25 14:25:21 39° 331° (NNW) 14:29:17 437.485
Gurwin Techsat 1B 27 Mar 14:21:52 14:26:57 48° 64° (ENE) 14:32:05 435.225
Oscar 19 27 Mar 14:24:48 14:29:53 62° 258° (WSW) 14:35:00 437.125/150
VELOX 1 27 Mar 14:28:57 14:32:08 19° 305° (NW) 14:35:12 145.980
AISAT 27 Mar 14:32:43 14:35:44 18° 306° (NW) 14:38:40 437.250
SWISSCUBE 27 Mar 14:34:07 14:38:10 27° 92° (E) 14:42:15 437.505
CUBEBUG 1 27 Mar 14:35:19 14:39:00 27° 300° (WNW) 14:42:37 437.445
BEESAT 27 Mar 14:37:31 14:41:32 26° 92° (E) 14:45:37 436.000
HO-68 27 Mar 14:39:30 14:42:49 14° 335° (NNW) 14:45:58 435.675
AIST 2 27 Mar 14:39:59 14:44:14 58° 324° (NW) 14:48:31 435.215
TISAT 1 27 Mar 14:50:36 14:54:44 57° 291° (WNW) 14:58:51 437.305
SPROUT 27 Mar 14:52:46 14:56:54 48° 293° (WNW) 15:01:02 437.525
YUBILEINY 27 Mar 14:54:01 15:02:37 63° 93° (E) 15:11:21 435.215
ESTCUBE 1 27 Mar 14:54:28 14:57:49 20° 305° (NW) 15:01:05 437.505/2401.250
HORYU 2 27 Mar 15:02:50 15:06:39 29° 60° (ENE) 15:10:33 437.375
JAS-2 27 Mar 15:07:12 15:13:21 32° 50° (NE) 15:19:59 435.910
BEESAT 2 27 Mar 15:20:27 15:24:02 27° 343° (NNW) 15:27:38 435.950
KKS-1 27 Mar 15:22:00 15:24:40 16° 86° (E) 15:27:30 437.445
ITUPSAT 1 27 Mar 15:22:38 15:27:24 58° 101° (E) 15:32:09 437.325
ITAMSAT 1 27 Mar 15:25:24 15:30:31 53° 259° (W) 15:35:39 435.822/435.867
O/OREOS (USA 219) 27 Mar 15:30:57 15:35:15 40° 249° (WSW) 15:39:29 437.305
AIST 1 27 Mar 15:39:49 15:43:55 38° 69° (ENE) 15:47:59
PCSat 27 Mar 15:43:39 15:47:32 21° 110° (ESE) 15:51:34 145.827
AO-7 27 Mar 15:54:28 16:02:41 71° 62° (ENE) 16:10:58 29.400- 29.500
STARS 27 Mar 15:58:40 16:02:06 22° 91° (E) 16:05:36 437.465
BEESAT 3 27 Mar 16:01:02 16:04:21 22° 354° (N) 16:07:39 437.485
Gurwin Techsat 1B 27 Mar 16:02:12 16:07:07 36° 265° (W) 16:12:02 435.225
Oscar 19 27 Mar 16:08:29 16:10:26 12° 280° (W) 16:12:08 437.125/150
SWISSCUBE 27 Mar 16:11:39 16:16:23 56° 292° (WNW) 16:21:04 437.505
BEESAT 27 Mar 16:15:01 16:19:45 57° 292° (WNW) 16:24:26 436.000
AIST 2 27 Mar 16:19:57 16:23:36 26° 347° (NNW) 16:27:14 435.215
TISAT 1 27 Mar 16:28:16 16:29:45 12° 310° (NW) 16:31:06 437.305
SPROUT 27 Mar 16:31:26 16:32:07 10° 312° (NW) 16:32:39 437.525
HORYU 2 27 Mar 16:38:52 16:43:10 48° 260° (W) 16:47:31 437.375
JAS-2 27 Mar 16:50:31 16:57:38 89° 260° (W) 17:05:28 435.910
YUBILEINY 27 Mar 16:51:36 16:59:59 44° 298° (WNW) 17:08:22 435.215
KKS-1 27 Mar 16:57:31 17:02:00 85° 290° (WNW) 17:06:28 437.445
BEESAT 2 27 Mar 16:59:57 17:03:18 23° 7° (N) 17:06:40 435.950
ITUPSAT 1 27 Mar 17:00:57 17:05:05 28° 301° (WNW) 17:09:07 437.325
ITAMSAT 1 27 Mar 17:10:48 17:11:23 10° 282° (WNW) 17:11:41 435.822/435.867
AIST 1 27 Mar 17:17:40 17:21:31 31° 270° (W) 17:25:17
PCSat 27 Mar 17:24:54 17:30:20 86° 127° (SE) 17:35:49 145.827
Cubesat XI-IV 27 Mar 17:30:57 17:35:29 29° 57° (ENE) 17:40:06 437.490
CUTE-I 27 Mar 17:31:25 17:35:56 29° 57° (ENE) 17:40:32 437.470
STARS 27 Mar 17:34:37 17:38:58 59° 291° (WNW) 17:43:18 437.465
BEESAT 3 27 Mar 17:39:55 17:43:31 27° 18° (NNE) 17:47:06 437.485
AO-7 27 Mar 17:48:31 17:56:10 38° 265° (W) 18:03:46 29.400- 29.500
SWISSCUBE 27 Mar 17:50:58 17:53:23 14° 313° (NW) 17:55:38 437.505
BEESAT 27 Mar 17:54:19 17:56:44 14° 313° (NW) 17:59:00 436.000
AIST 2 27 Mar 17:59:46 18:03:21 24° 10° (N) 18:06:54 435.215
HO-68 27 Mar 18:08:28 18:12:18 16° 30° (NNE) 18:16:19 435.675
MOZHAYETS 4 27 Mar 18:17:23 18:21:57 50° 99° (E) 18:26:29
AUBIESAT-1 27 Mar 18:28:44 18:32:32 23° 96° (E) 18:36:25 437.475
KKS-1 27 Mar 18:35:10 18:38:05 17° 307° (NW) 18:40:54 437.445
JAS-2 27 Mar 18:37:57 18:43:50 26° 277° (W) 18:49:58 435.910
BEESAT 2 27 Mar 18:38:23 18:42:23 41° 30° (NNE) 18:46:21 435.950
M-CUBED/EXP-1 PRIME 27 Mar 18:51:03 18:55:31 37° 102° (ESE) 19:00:02 437.505
YUBILEINY 27 Mar 18:54:31 18:59:53 17° 328° (NNW) 19:05:03 435.215
RS-15 27 Mar 18:59:24 19:06:12 20° 99° (E) 19:13:36 29.354- 29.394
PCSat 27 Mar 19:09:22 19:14:21 35° 334° (NNW) 19:19:19 145.827
Cubesat XI-IV 27 Mar 19:09:57 19:15:18 66° 257° (WSW) 19:20:41 437.490
CUTE-I 27 Mar 19:10:22 19:15:43 66° 257° (WSW) 19:21:06 437.470
STARS 27 Mar 19:12:39 19:14:40 13° 311° (NW) 19:16:31 437.465
GONETS M04 27 Mar 19:13:50 19:20:21 25° 76° (ENE) 19:27:09
BEESAT 3 27 Mar 19:18:00 19:22:10 74° 41° (NE) 19:26:17 437.485
BRITE-PL 27 Mar 19:28:44 19:31:48 19° 57° (ENE) 19:34:51 437.365/2234.400
AIST 2 27 Mar 19:38:33 19:42:47 50° 33° (NNE) 19:46:57 435.215
CANX-2 27 Mar 19:39:28 19:41:51 15° 53° (NE) 19:44:21 2200.000
SO-50 27 Mar 19:47:11 19:49:33 14° 112° (ESE) 19:52:08 436.795
HO-68 27 Mar 19:51:48 19:58:18 39° 54° (NE) 20:04:53 435.675
CUTE 1.7 + AOD 2 27 Mar 19:53:13 19:56:01 18° 55° (NE) 19:58:54 437.475
MOZHAYETS 4 27 Mar 19:54:56 19:59:01 30° 299° (WNW) 20:03:03
STRAND 1 27 Mar 19:58:29 20:02:53 29° 92° (E) 20:07:19 437.568
CUBESAT XI-V 27 Mar 19:58:51 20:03:22 46° 98° (E) 20:07:50 437.345
PRISM 27 Mar 20:02:03 20:06:00 38° 98° (E) 20:09:55 437.425
AUBIESAT-1 27 Mar 20:02:59 20:07:48 72° 295° (WNW) 20:12:37 437.475
BEESAT 2 27 Mar 20:16:36 20:20:39 50° 232° (SW) 20:24:39 435.950
CINEMA 3 27 Mar 20:18:24 20:20:36 14° 53° (NE) 20:22:55 145.822/145.860
DOVE 4 27 Mar 20:23:05 20:26:31 24° 61° (ENE) 20:29:56 437.250
GOMX 1 27 Mar 20:24:27 20:28:23 33° 64° (ENE) 20:32:13 467.674
SEEDS 27 Mar 20:24:31 20:28:00 26° 61° (ENE) 20:31:33 437.485
AAUSAT CUBESAT 2 27 Mar 20:24:52 20:27:58 21° 58° (ENE) 20:31:10 437.432
M-CUBED/EXP-1 PRIME 27 Mar 20:25:52 20:30:29 46° 301° (WNW) 20:35:07 437.505
Oscar 11 27 Mar 20:36:12 20:38:52 16° 54° (NE) 20:41:38 145.826/435.025
UWE-3 27 Mar 20:42:56 20:44:44 13° 51° (NE) 20:46:39 435.000/436.395/437.385
CUBEBUG 2 27 Mar 20:43:20 20:45:34 15° 53° (NE) 20:47:56 437.445
FUNcube-1 27 Mar 20:44:30 20:45:42 11° 50° (NE) 20:47:02 145.935
COMPASS 1 27 Mar 20:49:31 20:53:20 35° 64° (ENE) 20:57:12 437.405
Cubesat XI-IV 27 Mar 20:53:55 20:56:35 13° 279° (W) 20:59:00 437.490
CUTE-I 27 Mar 20:54:19 20:56:59 13° 279° (W) 20:59:24 437.470
PCSat 27 Mar 20:54:51 20:59:14 24° 359° (N) 21:03:37 145.827
ZACube-1 27 Mar 20:55:37 20:57:40 14° 52° (NE) 20:59:51 437.345
BEESAT 3 27 Mar 20:56:34 20:59:52 23° 240° (WSW) 21:03:04 437.485
YUBILEINY 27 Mar 21:01:18 21:01:49 10° 1° (N) 21:02:22 435.215
BRITE-PL 27 Mar 21:05:18 21:09:58 82° 255° (WSW) 21:14:19 437.365/2234.400
RS-15 27 Mar 21:05:44 21:16:21 63° 124° (ESE) 21:27:20 29.354- 29.394
GONETS M04 27 Mar 21:07:22 21:16:05 84° 100° (E) 21:24:55
CANX-2 27 Mar 21:12:55 21:17:11 79° 72° (ENE) 21:21:29 2200.000
AIST 2 27 Mar 21:17:20 21:21:20 38° 235° (SW) 21:25:16 435.215
SO-50 27 Mar 21:24:38 21:29:18 65° 132° (SE) 21:34:08 436.795
CUTE 1.7 + AOD 2 27 Mar 21:27:10 21:31:25 85° 254° (WSW) 21:35:45 437.475
50 SAT 27 Mar 21:35:04 21:36:32 12° 52° (NE) 21:38:07 437.505
CUBESAT XI-V 27 Mar 21:36:33 21:40:42 32° 298° (WNW) 21:44:47 437.345
STRAND 1 27 Mar 21:37:25 21:42:28 57° 293° (WNW) 21:47:28 437.568
PRISM 27 Mar 21:37:39 21:41:27 33° 297° (WNW) 21:45:11 437.425
HO-68 27 Mar 21:38:37 21:45:46 67° 256° (WSW) 21:52:58 435.675
AUBIESAT-1 27 Mar 21:38:39 21:41:58 19° 315° (NW) 21:45:13 437.475
UKube-1 27 Mar 21:40:46 21:44:23 27° 59° (ENE) 21:48:03 .
DX 1 27 Mar 21:48:09 21:51:59 31° 62° (ENE) 21:55:52 434.975-435.025
DELFI C3 27 Mar 21:50:27 21:54:21 46° 68° (ENE) 21:58:19 145.870
DANDE 27 Mar 21:52:11 21:54:01 16° 95° (E) 21:55:49 436.750
CINEMA 3 27 Mar 21:53:03 21:57:15 80° 72° (ENE) 22:01:25 145.822/145.860
AAUSAT CUBESAT 2 27 Mar 21:59:04 22:03:14 67° 258° (WSW) 22:07:28 437.432
SEEDS 27 Mar 21:59:29 22:03:36 51° 261° (W) 22:07:47 437.485
DOVE 4 27 Mar 21:59:53 22:04:06 53° 260° (W) 22:08:14 437.250
HUMSAT D 27 Mar 22:00:07 22:03:29 25° 61° (ENE) 22:06:55 437.325/437.525
M-CUBED/EXP-1 PRIME 27 Mar 22:02:04 22:04:26 14° 321° (NW) 22:06:42 437.505
GOMX 1 27 Mar 22:02:25 22:06:33 37° 263° (W) 22:10:32 467.674
Oscar 11 27 Mar 22:10:09 22:14:29 85° 74° (ENE) 22:18:52 145.826/435.025
UWE-3 27 Mar 22:16:27 22:20:34 67° 72° (ENE) 22:24:44 435.000/436.395/437.385
FUNcube-1 27 Mar 22:17:11 22:21:14 56° 70° (ENE) 22:25:22 145.935
CUBEBUG 2 27 Mar 22:17:31 22:21:40 80° 74° (ENE) 22:25:53 437.445
VELOX 1 27 Mar 22:20:33 22:24:26 30° 61° (ENE) 22:28:20 145.980
AISAT 27 Mar 22:24:17 22:28:14 33° 62° (ENE) 22:32:14 437.250
COMPASS 1 27 Mar 22:25:10 22:29:03 35° 264° (W) 22:32:57 437.405
CUBEBUG 1 27 Mar 22:27:03 22:30:11 20° 56° (NE) 22:33:23 437.445
ZACube-1 27 Mar 22:29:15 22:33:23 73° 72° (ENE) 22:37:35 437.345
PCSat 27 Mar 22:39:15 22:44:09 33° 24° (NNE) 22:49:04 145.827
SPROUT 27 Mar 22:46:02 22:46:53 11° 48° (NE) 22:47:54 437.525
BRITE-PL 27 Mar 22:46:57 22:49:15 13° 275° (W) 22:51:19 437.365/2234.400
ESTCUBE 1 27 Mar 22:47:32 22:51:30 30° 61° (ENE) 22:55:30 437.505/2401.250
CANX-2 27 Mar 22:50:58 22:53:43 16° 274° (W) 22:56:23 2200.000
CUSAT 1 27 Mar 22:56:04 22:58:43 50° 288° (WNW) 23:01:17 437.405
ANTELSAT 27 Mar 22:56:19 22:58:07 12° 83° (E) 23:00:07 437.575/2403.000
YUBILEINY 27 Mar 22:58:09 23:03:39 18° 35° (NE) 23:09:22 435.215
SO-50 27 Mar 23:05:34 23:10:08 42° 334° (NNW) 23:14:49 436.795
CUTE 1.7 + AOD 2 27 Mar 23:05:58 23:08:07 13° 276° (W) 23:10:09 437.475
GONETS M04 27 Mar 23:06:23 23:14:07 33° 306° (NW) 23:21:49
50 SAT 27 Mar 23:06:52 23:10:46 66° 71° (ENE) 23:14:43 437.505
UKube-1 27 Mar 23:16:04 23:20:19 52° 259° (W) 23:24:36 .
STRAND 1 27 Mar 23:17:55 23:20:46 15° 314° (NW) 23:23:28 437.568
RS-15 27 Mar 23:17:59 23:28:56 66° 333° (NNW) 23:40:17 29.354- 29.394
DX 1 27 Mar 23:23:58 23:28:09 43° 261° (W) 23:32:21 434.975-435.025
DELFI C3 27 Mar 23:26:19 23:29:45 25° 268° (W) 23:33:10 145.870
HO-68 27 Mar 23:30:27 23:35:05 17° 279° (W) 23:39:26 435.675
QB50P2 27 Mar 23:30:43 23:32:39 13° 84° (E) 23:34:46 145.880/145.840
CINEMA 3 27 Mar 23:32:34 23:35:06 15° 274° (W) 23:37:31 145.822/145.860
DANDE 27 Mar 23:34:48 23:37:12 24° 292° (WNW) 23:39:26 436.750
HUMSAT D 27 Mar 23:35:04 23:39:04 49° 260° (W) 23:43:07 437.325/437.525
AAUSAT CUBESAT 2 27 Mar 23:39:13 23:39:50 10° 279° (W) 23:40:13 437.432
Oscar 11 27 Mar 23:48:41 23:51:21 15° 275° (W) 23:53:53 145.826/435.025
UNISAT 6 27 Mar 23:50:57 23:55:04 34° 95° (E) 23:59:17 437.425
UWE-3 27 Mar 23:54:42 23:57:38 18° 272° (W) 00:00:29 435.000/436.395/437.385
FUNcube-1 27 Mar 23:54:46 23:57:59 21° 270° (W) 00:01:10 145.935
CUBEBUG 2 27 Mar 23:56:30 23:59:01 15° 274° (W) 00:01:27 437.445
VELOX 1 27 Mar 23:56:34 00:00:53 46° 261° (W) 00:05:11 145.980
POPSAT HIP 1 27 Mar 23:58:59 00:02:17 22° 91° (E) 00:05:40 437.405
AISAT 28 Mar 00:00:33 00:04:47 42° 262° (W) 00:09:02 437.250
CUBEBUG 1 28 Mar 00:01:41 00:06:07 79° 255° (WSW) 00:10:33 437.445
TIGRISAT 28 Mar 00:02:00 00:06:16 40° 97° (E) 00:10:37 435.000
ZACube-1 28 Mar 00:07:36 00:10:21 17° 273° (W) 00:13:00 437.345
BUGSAT 1 28 Mar 00:08:07 00:11:04 19° 90° (E) 00:14:04 437.445
NANOSAT C BR1 28 Mar 00:10:11 00:13:48 27° 93° (E) 00:17:28 145.865
SWISSCUBE 28 Mar 00:12:34 00:15:17 16° 49° (NE) 00:18:08 437.505
POLYITAN 1 28 Mar 00:12:42 00:16:25 29° 94° (E) 00:20:11 437.675
TISAT 1 28 Mar 00:14:21 00:18:19 41° 66° (ENE) 00:22:19 437.305
BEESAT 28 Mar 00:15:53 00:18:34 15° 49° (NE) 00:21:24 436.000
SPROUT 28 Mar 00:17:58 00:22:06 50° 68° (ENE) 00:26:18 437.525
PCSat 28 Mar 00:22:46 00:28:15 87° 46° (NE) 00:33:42 145.827
ESTCUBE 1 28 Mar 00:23:49 00:28:14 48° 261° (W) 00:32:41 437.505/2401.250
ANTELSAT 28 Mar 00:31:15 00:35:47 72° 103° (ESE) 00:40:25 437.575/2403.000
50 SAT 28 Mar 00:43:31 00:46:10 17° 272° (W) 00:48:45 437.505
SO-50 28 Mar 00:47:32 00:51:44 28° 358° (N) 00:56:00 436.795
QB50P1 28 Mar 00:50:51 00:55:04 62° 102° (ESE) 00:59:16 145.935-145.965
DUCHIFAT 1 28 Mar 00:53:45 00:57:58 65° 102° (ESE) 01:02:09 145.980
YUBILEINY 28 Mar 00:54:51 01:03:21 48° 64° (ENE) 01:11:50 435.215
ITUPSAT 1 28 Mar 00:59:50 01:03:54 29° 59° (ENE) 01:08:04 437.325
QB50P2 28 Mar 01:05:03 01:09:19 84° 105° (ESE) 01:13:34 145.880/145.840
GONETS M04 28 Mar 01:10:46 01:14:42 13° 337° (NNW) 01:18:27
UNISAT 6 28 Mar 01:27:43 01:31:58 41° 295° (WNW) 01:36:16 437.425
STARS 28 Mar 01:30:13 01:31:04 11° 47° (NE) 01:32:03 437.465
RS-15 28 Mar 01:32:27 01:43:17 53° 4° (N) 01:54:36 29.354- 29.394
POPSAT HIP 1 28 Mar 01:34:23 01:38:32 55° 291° (WNW) 01:42:40 437.405
TIGRISAT 28 Mar 01:38:55 01:43:00 35° 296° (WNW) 01:47:08 435.000
CUBEBUG 1 28 Mar 01:41:13 01:43:18 13° 276° (W) 01:45:14 437.445
BUGSAT 1 28 Mar 01:42:57 01:46:58 59° 290° (WNW) 01:50:55 437.445
NANOSAT C BR1 28 Mar 01:45:49 01:49:52 44° 293° (WNW) 01:53:53 145.865
SWISSCUBE 28 Mar 01:47:37 01:52:23 66° 70° (ENE) 01:57:11 437.505
POLYITAN 1 28 Mar 01:48:29 01:52:30 42° 294° (WNW) 01:56:30 437.675
TISAT 1 28 Mar 01:50:31 01:54:16 29° 266° (W) 01:57:58 437.305
BEESAT 28 Mar 01:50:54 01:55:40 66° 69° (ENE) 02:00:28 436.000
SPROUT 28 Mar 01:54:52 01:58:28 25° 268° (W) 02:02:03 437.525
ISS 28 Mar 02:01:23 02:04:11 27° 159° (SSE) 02:07:00 145.825
PCSat 28 Mar 02:06:52 02:11:07 23° 249° (WSW) 02:15:16 145.827
ANTELSAT 28 Mar 02:08:44 02:12:13 22° 303° (WNW) 02:15:41 437.575/2403.000
KKS-1 28 Mar 02:26:45 02:30:46 35° 63° (ENE) 02:34:50 437.445
QB50P1 28 Mar 02:27:20 02:30:38 22° 302° (WNW) 02:33:53 145.935-145.965
SO-50 28 Mar 02:28:49 02:33:24 37° 22° (NNE) 02:38:03 436.795
Oscar 19 28 Mar 02:29:01 02:33:27 28° 92° (E) 02:37:56 437.125/150
DUCHIFAT 1 28 Mar 02:30:14 02:33:28 21° 302° (WNW) 02:36:38 145.980
Gurwin Techsat 1B 28 Mar 02:33:13 02:34:03 10° 78° (ENE) 02:35:10 435.225
ITUPSAT 1 28 Mar 02:36:49 02:41:34 57° 259° (WSW) 02:46:22 437.325
QB50P2 28 Mar 02:41:52 02:44:45 18° 305° (NW) 02:47:32 145.880/145.840
YUBILEINY 28 Mar 02:51:55 03:00:31 57° 269° (W) 03:08:59 435.215
STARS 28 Mar 03:02:25 03:06:37 47° 67° (ENE) 03:10:52 437.465
POPSAT HIP 1 28 Mar 03:12:11 03:13:37 11° 311° (NW) 03:14:56 437.405
GONETS M04 28 Mar 03:15:09 03:16:52 11° 11° (N) 03:18:43
BUGSAT 1 28 Mar 03:20:21 03:21:41 11° 310° (NW) 03:22:54 437.445
SWISSCUBE 28 Mar 03:26:53 03:30:44 23° 270° (W) 03:34:31 437.505
BEESAT 28 Mar 03:30:09 03:33:59 23° 270° (W) 03:37:46 436.000
ITAMSAT 1 28 Mar 03:30:47 03:35:26 33° 94° (E) 03:40:07 435.822/435.867
ISS 28 Mar 03:37:05 03:40:12 43° 179° (S) 03:43:18 145.825
RS-15 28 Mar 03:46:05 03:57:24 76° 36° (NE) 04:09:16 29.354- 29.394
AO-7 28 Mar 03:49:45 03:53:10 13° 75° (ENE) 03:57:06 29.400- 29.500
AUBIESAT-1 28 Mar 03:50:32 03:53:26 18° 45° (NE) 03:56:32 437.475
MOZHAYETS 4 28 Mar 03:50:51 03:54:15 21° 56° (NE) 03:57:46
JAS-2 28 Mar 03:53:59 03:57:42 14° 72° (ENE) 04:01:45 435.910
KKS-1 28 Mar 04:03:15 04:07:25 39° 263° (W) 04:11:36 437.445
Oscar 19 28 Mar 04:08:05 04:13:11 59° 293° (WNW) 04:18:15 437.125/150
SO-50 28 Mar 04:09:27 04:14:25 82° 223° (SW) 04:19:23 436.795
Gurwin Techsat 1B 28 Mar 04:10:11 04:15:25 54° 100° (E) 04:20:38 435.225
M-CUBED/EXP-1 PRIME 28 Mar 04:12:44 04:16:14 26° 51° (NE) 04:20:01 437.505
AIST 1 28 Mar 04:18:32 04:21:11 16° 83° (E) 04:23:58
ITUPSAT 1 28 Mar 04:19:58 04:20:40 10° 280° (W) 04:21:06 437.325
HORYU 2 28 Mar 04:23:13 04:26:35 21° 90° (E) 04:30:03 437.375
STARS 28 Mar 04:39:31 04:43:19 27° 267° (W) 04:47:05 437.465
YUBILEINY 28 Mar 04:50:32 04:55:29 16° 293° (WNW) 05:00:02 435.215
ITAMSAT 1 28 Mar 05:10:10 05:15:12 51° 295° (WNW) 05:20:13 435.822/435.867
GONETS M04 28 Mar 05:11:41 05:18:14 23° 43° (NE) 05:25:01
ISS 28 Mar 05:13:20 05:16:14 30° 198° (SSW) 05:19:08 145.825
AUBIESAT-1 28 Mar 05:23:25 05:27:35 78° 65° (ENE) 05:32:08 437.475
PRISM 28 Mar 05:26:10 05:28:27 15° 52° (NE) 05:30:52 437.425
MOZHAYETS 4 28 Mar 05:26:23 05:31:02 79° 257° (WSW) 05:35:44
CUBESAT XI-V 28 Mar 05:33:38 05:37:01 20° 56° (NE) 05:40:30 437.345
JAS-2 28 Mar 05:37:10 05:44:51 53° 96° (E) 05:52:09 435.910
AO-7 28 Mar 05:40:21 05:48:24 52° 101° (E) 05:56:28 29.400- 29.500
STRAND 1 28 Mar 05:44:26 05:48:01 20° 51° (NE) 05:51:42 437.568
M-CUBED/EXP-1 PRIME 28 Mar 05:46:41 05:50:48 62° 253° (WSW) 05:55:18 437.505
Oscar 19 28 Mar 05:48:43 05:51:39 15° 313° (NW) 05:54:26 437.125/150
O/OREOS (USA 219) 28 Mar 05:49:48 05:54:18 56° 115° (ESE) 05:58:50 437.305
Gurwin Techsat 1B 28 Mar 05:50:29 05:55:15 34° 301° (WNW) 05:59:58 435.225
SO-50 28 Mar 05:50:48 05:54:24 20° 244° (WSW) 05:57:54 436.795
AIST 1 28 Mar 05:53:54 05:58:19 79° 283° (WNW) 06:02:46
RS-15 28 Mar 05:58:43 06:09:31 51° 242° (WSW) 06:20:40 29.354- 29.394
HORYU 2 28 Mar 05:59:14 06:03:43 67° 290° (WNW) 06:08:11 437.375
